Location: Elstree
(51.6403°N, 0.2969°W)
Time: 16:00:52
(UTC+00:00)

SJ 16-02 - Pass Details

Date: 22 June 2021
Orbit: 606 x 616 km, 75.0° (Epoch: 29 July)

Event Time Altitude Azimuth Distance (km) Brightness Sun altitude
Rises 21:59:00 0° 343° (NNW) 2,878 6.7 -10.1°
Reaches altitude 10° 22:01:37 10° 357° (N) 1,969 5.1 -10.3°
Maximum altitude 22:05:13 24° 53° (NE) 1,263 3.1 -10.6°
Drops below altitude 10° 22:08:48 10° 108° (ESE) 1,958 3.5 -10.8°
Enters shadow 22:09:22 - 112° (ESE) 2,143 3.7 -10.9°
